HST
1 20580U 90037B   24253.97432398  .00015242  00000-0  69249-3 0  9992
2 20580  28.4669 136.4891 0002345 255.3405 104.6928 15.19298391689935
ISS (ZARYA)
1 25544U 98067A   24254.40669491  .00075817  00000-0  13757-2 0  9999
2 25544  51.6371 253.2173 0007600 336.3607 167.6866 15.48877351471763
CXO
1 25867U 99040B   24255.13154676  .00001106  00000-0  00000-0 0  9999
2 25867  42.9668 146.7823 8799070 301.1020   0.8196  0.37808015 14880